Time,TemperatureF,DewpointF,PressureIn,WindDirection,WindDirectionDegrees,WindSpeedMPH,WindSpeedGustMPH,Humidity,HourlyPrecipIn,Conditions,Clouds,dailyrainin,SoftwareType,DateUTC
2013-02-02 07:52:00,66.0,63.0,30.13,East,84,0.0,7.0,91,0.00,,,0.00,,2013-02-02 13:52:00,
2013-02-02 08:02:00,66.0,63.0,30.13,ENE,76,1.0,6.0,91,0.00,,,0.00,,2013-02-02 14:02:00,
2013-02-02 08:11:00,66.0,63.0,30.13,ENE,76,1.0,6.0,91,0.00,,,0.00,,2013-02-02 14:11:00,
2013-02-02 08:22:00,67.0,64.0,30.13,ENE,67,1.0,5.0,90,0.00,,,0.00,,2013-02-02 14:22:00,
2013-02-02 08:32:00,67.0,64.0,30.14,East,80,0.0,0.0,90,0.00,,,0.00,,2013-02-02 14:32:00,
2013-02-02 08:42:00,67.0,64.0,30.14,East,80,0.0,0.0,90,0.00,,,0.00,,2013-02-02 14:42:00,
2013-02-02 08:52:00,68.0,65.0,30.14,ENE,67,4.0,8.0,89,0.00,,,0.00,,2013-02-02 14:52:00,
2013-02-02 09:03:00,68.0,65.0,30.14,NE,52,2.0,10.0,89,0.00,,,0.00,,2013-02-02 15:03:00,
2013-02-02 09:12:00,68.0,65.0,30.14,NE,52,2.0,10.0,89,0.00,,,0.00,,2013-02-02 15:12:00,
2013-02-02 09:22:00,69.0,65.0,30.14,NE,53,2.0,8.0,88,0.00,,,0.00,,2013-02-02 15:22:00,
2013-02-02 09:32:00,70.0,66.0,30.14,ENE,71,7.0,12.0,86,0.00,,,0.00,,2013-02-02 15:32:00,
2013-02-02 09:42:00,70.0,66.0,30.14,ENE,71,7.0,12.0,86,0.00,,,0.00,,2013-02-02 15:42:00,
2013-02-02 09:52:00,70.0,64.0,30.15,ENE,72,6.0,13.0,82,0.00,,,0.00,,2013-02-02 15:52:00,
2013-02-02 10:03:00,72.0,65.0,30.14,NE,38,7.0,12.0,80,0.00,,,0.00,,2013-02-02 16:03:00,
2013-02-02 10:11:00,72.0,65.0,30.14,NE,38,7.0,12.0,80,0.00,,,0.00,,2013-02-02 16:11:00,
2013-02-02 10:22:00,73.0,65.0,30.14,East,82,4.0,14.0,77,0.00,,,0.00,,2013-02-02 16:22:00,
2013-02-02 10:32:00,73.0,65.0,30.14,NE,52,6.0,13.0,76,0.00,,,0.00,,2013-02-02 16:32:00,
2013-02-02 10:42:00,73.0,65.0,30.14,NE,52,6.0,13.0,76,0.00,,,0.00,,2013-02-02 16:42:00,
2013-02-02 10:52:00,73.0,65.0,30.14,NE,34,7.0,13.0,75,0.00,,,0.00,,2013-02-02 16:52:00,
2013-02-02 11:02:00,74.0,66.0,30.14,ENE,59,4.0,11.0,75,0.00,,,0.00,,2013-02-02 17:02:00,
2013-02-02 11:11:00,74.0,66.0,30.14,ENE,59,4.0,11.0,75,0.00,,,0.00,,2013-02-02 17:11:00,
2013-02-02 11:22:00,75.0,65.0,30.13,ENE,57,5.0,12.0,71,0.00,,,0.00,,2013-02-02 17:22:00,
2013-02-02 11:32:00,75.0,64.0,30.12,NE,42,4.0,10.0,69,0.00,,,0.00,,2013-02-02 17:32:00,
2013-02-02 11:42:00,75.0,64.0,30.12,NE,42,4.0,10.0,69,0.00,,,0.00,,2013-02-02 17:42:00,
2013-02-02 11:52:00,76.0,65.0,30.11,NE,51,5.0,9.0,68,0.00,,,0.00,,2013-02-02 17:52:00,
2013-02-02 12:02:00,75.0,65.0,30.11,ENE,70,5.0,12.0,70,0.00,,,0.00,,2013-02-02 18:02:00,
2013-02-02 12:12:00,75.0,65.0,30.11,ENE,70,5.0,12.0,70,0.00,,,0.00,,2013-02-02 18:12:00,
2013-02-02 12:22:00,75.0,65.0,30.10,NE,42,5.0,12.0,70,0.00,,,0.00,,2013-02-02 18:22:00,
2013-02-02 12:32:00,76.0,65.0,30.09,NE,40,3.0,10.0,68,0.00,,,0.00,,2013-02-02 18:32:00,
2013-02-02 12:42:00,76.0,65.0,30.09,NE,40,3.0,10.0,68,0.00,,,0.00,,2013-02-02 18:42:00,
2013-02-02 12:52:00,78.0,67.0,30.09,ENE,57,2.0,12.0,68,0.00,,,0.00,,2013-02-02 18:52:00,
2013-02-02 13:02:00,77.0,66.0,30.08,NE,39,6.0,12.0,70,0.00,,,0.00,,2013-02-02 19:02:00,
2013-02-02 13:12:00,77.0,66.0,30.08,NE,39,6.0,12.0,70,0.00,,,0.00,,2013-02-02 19:12:00,
2013-02-02 13:21:00,78.0,66.0,30.07,North,10,0.0,9.0,67,0.00,,,0.00,,2013-02-02 19:21:00,
2013-02-02 13:32:00,79.0,67.0,30.06,ENE,74,0.0,12.0,66,0.00,,,0.00,,2013-02-02 19:32:00,
2013-02-02 13:42:00,79.0,67.0,30.06,ENE,74,0.0,12.0,66,0.00,,,0.00,,2013-02-02 19:42:00,
2013-02-02 13:51:00,79.0,67.0,30.06,NE,49,7.0,14.0,66,0.00,,,0.00,,2013-02-02 19:51:00,
2013-02-02 14:01:00,79.0,67.0,30.06,ESE,115,5.0,12.0,67,0.00,,,0.00,,2013-02-02 20:01:00,
2013-02-02 14:11:00,79.0,67.0,30.06,ESE,115,5.0,12.0,67,0.00,,,0.00,,2013-02-02 20:11:00,
2013-02-02 14:21:00,79.0,67.0,30.05,ENE,77,1.0,10.0,66,0.00,,,0.00,,2013-02-02 20:21:00,
2013-02-02 14:32:00,80.0,67.0,30.05,ENE,67,3.0,11.0,65,0.00,,,0.00,,2013-02-02 20:32:00,
2013-02-02 14:42:00,80.0,67.0,30.05,ENE,67,3.0,11.0,65,0.00,,,0.00,,2013-02-02 20:42:00,
2013-02-02 14:52:00,79.0,67.0,30.04,NE,50,2.0,12.0,66,0.00,,,0.00,,2013-02-02 20:52:00,
2013-02-02 15:02:00,77.0,66.0,30.04,ENE,74,7.0,13.0,70,0.00,,,0.00,,2013-02-02 21:02:00,
2013-02-02 15:11:00,77.0,66.0,30.04,ENE,74,7.0,13.0,70,0.00,,,0.00,,2013-02-02 21:11:00,
2013-02-02 15:21:00,77.0,67.0,30.04,NE,43,6.0,12.0,71,0.00,,,0.00,,2013-02-02 21:21:00,
2013-02-02 15:32:00,77.0,67.0,30.04,East,84,2.0,13.0,71,0.00,,,0.00,,2013-02-02 21:32:00,
2013-02-02 15:42:00,77.0,67.0,30.04,East,84,2.0,13.0,71,0.00,,,0.00,,2013-02-02 21:42:00,
2013-02-02 15:52:00,77.0,67.0,30.04,ENE,67,7.0,12.0,72,0.00,,,0.00,,2013-02-02 21:52:00,
2013-02-02 16:02:00,77.0,66.0,30.05,ENE,78,8.0,14.0,70,0.00,,,0.00,,2013-02-02 22:02:00,
2013-02-02 16:12:00,77.0,66.0,30.05,ENE,78,8.0,14.0,70,0.00,,,0.00,,2013-02-02 22:12:00,
2013-02-02 16:21:00,77.0,67.0,30.04,ENE,70,10.0,14.0,71,0.00,,,0.00,,2013-02-02 22:21:00,
2013-02-02 16:32:00,77.0,68.0,30.04,NE,36,11.0,16.0,74,0.00,,,0.00,,2013-02-02 22:32:00,
2013-02-02 16:42:00,77.0,68.0,30.04,NE,36,11.0,16.0,74,0.00,,,0.00,,2013-02-02 22:42:00,
2013-02-02 16:52:00,77.0,68.0,30.05,ENE,74,7.0,13.0,74,0.00,,,0.00,,2013-02-02 22:52:00,
2013-02-02 17:02:00,77.0,68.0,30.05,ENE,66,7.0,13.0,73,0.00,,,0.00,,2013-02-02 23:02:00,
2013-02-02 17:11:00,77.0,68.0,30.05,ENE,66,7.0,13.0,73,0.00,,,0.00,,2013-02-02 23:11:00,
2013-02-02 17:21:00,76.0,67.0,30.05,East,101,8.0,10.0,74,0.00,,,0.00,,2013-02-02 23:21:00,
2013-02-02 17:32:00,75.0,67.0,30.05,East,98,3.0,9.0,77,0.00,,,0.00,,2013-02-02 23:32:00,
2013-02-02 17:42:00,75.0,67.0,30.05,East,98,3.0,9.0,77,0.00,,,0.00,,2013-02-02 23:42:00,
2013-02-02 17:52:00,74.0,67.0,30.05,ESE,109,0.0,9.0,79,0.00,,,0.00,,2013-02-02 23:52:00,
2013-02-02 18:02:00,73.0,66.0,30.06,ENE,76,0.0,7.0,80,0.00,,,0.00,,2013-02-03 00:02:00,
2013-02-02 18:11:00,73.0,66.0,30.06,ENE,76,0.0,7.0,80,0.00,,,0.00,,2013-02-03 00:11:00,
2013-02-02 18:22:00,73.0,67.0,30.06,ENE,62,0.0,7.0,81,0.00,,,0.00,,2013-02-03 00:22:00,
2013-02-02 18:32:00,72.0,66.0,30.06,East,85,0.0,0.0,82,0.00,,,0.00,,2013-02-03 00:32:00,
2013-02-02 18:42:00,72.0,66.0,30.06,East,85,0.0,0.0,82,0.00,,,0.00,,2013-02-03 00:42:00,
2013-02-02 18:51:00,72.0,66.0,30.06,ENE,69,0.0,0.0,81,0.00,,,0.00,,2013-02-03 00:51:00,
2013-02-02 19:02:00,72.0,66.0,30.06,East,90,0.0,0.0,81,0.00,,,0.00,,2013-02-03 01:02:00,
2013-02-02 19:11:00,72.0,66.0,30.07,ENE,74,0.0,0.0,82,0.00,,,0.00,,2013-02-03 01:11:00,
2013-02-02 19:21:00,72.0,66.0,30.07,ENE,74,0.0,0.0,82,0.00,,,0.00,,2013-02-03 01:21:00,
2013-02-02 19:32:00,72.0,67.0,30.08,ENE,72,0.0,0.0,83,0.00,,,0.00,,2013-02-03 01:32:00,
2013-02-02 19:42:00,72.0,67.0,30.08,ENE,72,0.0,0.0,83,0.00,,,0.00,,2013-02-03 01:42:00,
2013-02-02 19:52:00,72.0,67.0,30.09,ESE,103,0.0,0.0,83,0.00,,,0.00,,2013-02-03 01:52:00,
2013-02-02 20:01:00,71.0,66.0,30.09,East,85,3.0,8.0,83,0.00,,,0.00,,2013-02-03 02:01:00,
2013-02-02 20:11:00,71.0,66.0,30.09,East,85,3.0,8.0,83,0.00,,,0.00,,2013-02-03 02:11:00,
2013-02-02 20:21:00,71.0,66.0,30.09,ENE,71,1.0,6.0,83,0.00,,,0.00,,2013-02-03 02:21:00,
2013-02-02 20:32:00,71.0,66.0,30.09,ENE,71,2.0,10.0,83,0.00,,,0.00,,2013-02-03 02:32:00,
2013-02-02 20:42:00,71.0,66.0,30.09,ENE,71,2.0,10.0,83,0.00,,,0.00,,2013-02-03 02:42:00,
2013-02-02 20:52:00,71.0,66.0,30.09,ENE,61,5.0,10.0,83,0.00,,,0.00,,2013-02-03 02:52:00,
2013-02-02 21:02:00,71.0,66.0,30.10,ENE,70,0.0,9.0,83,0.00,,,0.00,,2013-02-03 03:02:00,
2013-02-02 21:11:00,71.0,66.0,30.10,ENE,70,0.0,9.0,83,0.00,,,0.00,,2013-02-03 03:11:00,
2013-02-02 21:21:00,70.0,65.0,30.10,ENE,72,3.0,8.0,83,0.00,,,0.00,,2013-02-03 03:21:00,
2013-02-02 21:31:00,70.0,65.0,30.10,ENE,71,0.0,8.0,84,0.00,,,0.00,,2013-02-03 03:31:00,
2013-02-02 21:42:00,70.0,65.0,30.10,ENE,71,0.0,8.0,84,0.00,,,0.00,,2013-02-03 03:42:00,
2013-02-02 21:51:00,70.0,65.0,30.10,ENE,59,1.0,8.0,84,0.00,,,0.00,,2013-02-03 03:51:00,
2013-02-02 22:01:00,70.0,65.0,30.11,ENE,62,0.0,8.0,84,0.00,,,0.00,,2013-02-03 04:01:00,
2013-02-02 22:11:00,70.0,65.0,30.11,ENE,62,0.0,8.0,84,0.00,,,0.00,,2013-02-03 04:11:00,
2013-02-02 22:21:00,70.0,65.0,30.11,ENE,62,0.0,8.0,84,0.00,,,0.00,,2013-02-03 04:21:00,
2013-02-02 22:31:00,70.0,65.0,30.11,ENE,62,0.0,8.0,84,0.00,,,0.00,,2013-02-03 04:31:00,